Snowfall_Accumulation
0.0 0.0 0.0 0.0 0.0 0.0 0.0 0.0 0.0 0.0 0.0 0.0 0.0 0.0 0.0 0.0 0.0 0.0 0.0 0.0 0.0 0.0 0.0 0.0 0.0 0.0 0.0 0.0 0.0 0.0 0.0 0.0 0.0 0.2 0.0 0.0 0.0 0.0 0.0 0.0 0.0 0.0 0.1 0.1 0.3 0.6 0.0 0.0 0.0 0.0 0.0 0.0 0.0 0.0
0.0 0.0 0.0 0.0 0.0 0.0 0.0 0.0 0.0 0.0 0.0 0.0 0.0 0.0 0.0 0.0 0.0 0.0 0.0 0.0 0.0 0.0 0.0 0.0 0.0 0.0 0.0 0.0 0.0 0.0 0.0 0.0 0.0 0.0 0.0 0.0 0.0 0.0 0.0 0.0 0.0 0.0 0.0 0.0 0.0 0.0 0.0 0.0 0.0 0.0 0.0 0.0 0.0 0.0
0.0 0.0 0.0 0.0 0.0 0.0 0.0 0.0 0.0 0.0 0.0 0.0 0.0 0.0 0.0 0.0 0.0 0.0 0.0 0.0 0.0 0.1 0.0 0.0 0.0 0.0 0.0 0.0 0.0 0.0 0.0 0.0 0.0 0.0 0.0 0.0 0.0 0.0 0.0 0.0 0.0 0.0 0.0 0.0 0.0 0.0 0.0 0.0 0.0 0.0 0.0 0.0 0.0 0.0
0.0 0.0 0.0 0.0 0.0 0.0 0.0 0.0 0.0 0.0 0.0 0.0 0.0 0.0 0.0 0.0 0.0 0.0 0.0 0.0 0.0 0.1 0.8 0.1 0.0 0.0 0.0 0.0 0.0 0.0 0.0 0.0 0.0 0.0 0.0 0.0 0.0 0.0 0.0 0.0 0.0 0.0 0.0 0.0 0.0 0.0 0.0 0.0 0.0 0.0 0.0 0.0 0.0 0.0
0.0 0.0 0.0 0.0 0.0 0.0 0.0 0.0 0.0 0.0 0.0 0.0 0.0 0.0 0.0 0.0 0.0 0.0 0.0 0.0 0.0 0.1 1.6 0.2 0.0 0.0 0.0 0.0 0.0 0.0 0.0 0.0 0.2 0.1 0.6 0.3 0.0 0.0 0.0 0.0 0.0 0.0 0.0 0.0 0.0 0.0 0.0 0.0 0.0 0.0 0.0 0.0 0.0 0.0
0.0 0.0 0.0 0.0 0.0 0.0 0.0 0.0 0.0 0.0 0.0 0.0 0.0 0.0 0.0 0.0 0.0 0.0 0.0 0.0 0.0 0.0 2.0 1.7 0.0 0.0 0.0 0.0 0.0 0.0 0.0 0.0 0.0 0.4 1.1 0.0 0.0 0.0 0.4 0.0 0.0 0.0 0.0 0.0 0.0 0.0 0.0 0.0 0.0 0.0 0.0 0.0 0.0 0.0
0.0 0.0 0.0 0.0 0.0 0.0 0.0 0.0 0.0 0.0 0.0 0.0 0.0 0.0 0.0 0.0 0.0 0.0 0.0 0.0 0.0 0.0 0.8 3.6 3.3 0.0 0.0 0.0 0.0 0.0 0.0 0.0 0.4 1.2 0.8 0.0 0.0 0.7 0.8 0.2 0.0 0.0 0.0 0.0 0.0 0.0 0.0 0.0 0.0 0.0 0.0 0.0 0.0 0.0
0.0 0.0 0.0 0.0 0.0 0.0 0.0 0.0 0.0 0.0 0.0 0.0 0.0 0.0 0.0 0.0 0.0 0.0 0.0 0.0 0.0 0.0 1.8 9.6 6.7 1.5 0.0 0.2 0.0 0.0 0.0 0.0 0.1 0.4 0.0 0.0 0.0 0.9 1.1 0.0 0.0 0.0 0.0 0.0 0.0 0.0 0.0 0.0 0.0 0.0 0.0 0.0 0.0 0.0
0.0 0.0 0.0 0.0 0.0 0.0 0.0 0.0 0.0 0.0 0.0 0.0 0.0 0.0 0.0 0.0 0.0 0.0 0.0 0.0 0.0 0.0 6.1 5.6 7.1 4.0 0.0 0.0 0.0 0.1 0.0 2.3 0.0 0.7 0.0 0.0 0.4 2.5 0.0 0.1 0.1 0.0 0.1 0.0 0.0 0.0 0.0 0.0 0.0 0.0 0.0 0.0 0.0 0.0
0.0 0.0 0.0 0.0 0.0 0.0 0.0 0.0 0.0 0.0 0.0 0.0 0.0 0.0 0.3 0.0 0.0 0.0 0.0 0.3 2.2 1.6 2.2 5.2 2.8 5.4 1.2 1.6 0.7 0.7 0.7 1.4 3.0 0.0 0.0 0.5 0.0 0.0 0.0 0.0 0.0 0.0 0.0 0.1 0.0 1.8 0.9 0.7 0.0 0.0 0.0 0.0 0.0 0.0
0.0 0.0 0.0 0.0 0.0 0.0 0.0 0.0 0.0 0.0 0.0 0.0 0.0 1.5 0.0 0.0 0.0 0.0 5.2 5.7 2.7 2.3 1.2 1.8 2.8 3.0 0.0 3.6 2.1 0.1 4.1 1.6 3.6 3.1 0.9 1.9 1.4 0.6 0.0 0.1 0.0 0.0 0.0 0.0 0.0 0.0 0.2 0.7 1.0 0.4 0.2 0.1 0.0 0.0
0.0 0.0 0.0 0.0 0.0 0.0 0.0 0.0 0.0 0.0 0.0 0.0 0.0 0.0 0.0 0.3 8.4 11.2 9.1 3.4 1.1 0.8 0.6 1.5 0.7 0.3 0.3 0.0 1.3 0.9 2.9 2.4 3.8 3.1 3.5 2.9 0.7 0.1 0.5 0.6 0.3 0.0 0.0 0.1 0.0 0.0 0.2 0.0 0.5 0.8 0.4 0.8 0.9 0.8
0.0 0.0 0.0 0.0 0.0 0.0 0.0 0.0 0.0 0.0 0.0 0.0 1.6 16.0 16.8 18.5 17.9 10.8 5.6 2.9 0.5 0.5 0.6 0.6 0.8 0.0 0.1 0.1 0.4 1.0 1.5 0.8 0.9 4.1 4.2 1.5 0.1 0.1 0.0 0.1 0.3 1.4 1.4 0.7 0.4 0.3 0.4 0.4 0.2 0.6 0.6 0.4 0.6 0.4
0.0 0.0 0.0 0.0 0.0 0.0 0.0 0.0 0.0 0.0 0.0 2.3 20.1 29.1 17.7 17.4 3.7 1.4 1.2 0.9 0.2 0.1 0.0 0.0 0.3 0.6 0.1 0.9 0.8 1.5 0.1 0.4 3.1 2.3 1.9 0.1 0.1 0.0 0.0 0.0 0.0 0.0 0.6 1.2 2.0 1.4 1.3 1.5 1.0 1.1 0.7 0.3 0.0 0.0
0.0 0.0 0.0 0.0 0.0 0.0 0.0 0.0 0.0 0.0 0.0 17.6 16.5 16.2 8.6 1.0 0.6 0.4 0.2 0.2 0.0 0.0 0.1 0.0 0.0 0.1 0.7 1.8 0.4 1.0 1.1 3.6 4.2 2.6 1.2 0.5 0.2 0.0 0.0 0.1 0.0 0.0 0.0 0.0 0.2 0.5 1.7 1.6 2.0 1.4 0.7 0.6 0.1 0.0
0.0 0.0 0.0 0.0 0.0 0.0 0.0 0.0 0.0 0.0 10.7 18.4 14.5 5.3 0.1 0.3 0.3 0.3 0.4 0.4 0.2 0.0 0.2 0.4 0.8 1.6 1.0 1.8 1.6 0.4 1.3 2.5 2.8 1.0 0.0 0.0 0.0 0.0 0.1 0.0 0.1 0.0 0.0 0.0 0.0 0.0 0.4 0.5 1.1 1.1 0.2 0.5 0.5 0.0
0.0 0.0 0.0 0.0 0.0 0.0 0.0 0.0 0.0 20.8 20.7 20.3 8.6 0.5 0.1 0.3 0.7 0.6 0.6 1.2 0.9 1.6 3.1 3.1 4.6 0.6 1.5 1.8 0.9 0.1 0.2 0.2 0.2 0.0 0.0 0.0 0.0 0.0 0.3 0.0 0.0 0.0 0.0 0.0 0.2 0.2 0.7 0.3 1.3 1.9 1.2 0.5 0.5 0.7
0.0 0.0 0.0 0.0 0.0 0.0 0.8 3.1 12.0 25.7 27.1 7.6 2.4 0.2 0.1 0.1 0.3 0.5 0.3 0.1 1.2 3.2 5.7 10.1 5.7 4.7 1.5 0.2 0.0 0.1 0.0 0.0 0.0 0.0 0.0 0.0 0.0 0.0 0.3 0.0 0.0 0.1 0.7 1.7 1.7 1.7 1.4 1.3 1.7 1.4 0.3 0.5 0.7 0.7
0.0 0.0 0.0 0.0 0.0 1.9 24.9 26.0 16.2 24.6 5.5 1.0 0.4 0.1 0.0 0.2 0.0 0.0 0.1 0.1 0.1 0.2 3.3 9.8 11.8 4.6 0.1 0.0 0.0 0.0 0.0 0.0 0.0 0.0 0.0 0.0 0.0 0.0 0.1 0.6 0.6 0.0 0.4 1.2 0.8 1.0 0.6 0.2 0.0 0.5 0.6 0.2 0.7 0.4
0.0 0.0 0.0 0.0 0.0 15.5 33.5 28.2 11.6 7.3 2.9 0.7 1.0 1.2 0.4 0.1 0.1 0.0 0.1 0.2 0.9 1.3 8.4 9.6 0.3 0.1 0.1 0.4 0.5 0.4 0.0 0.0 0.0 0.0 0.0 0.0 0.0 0.0 0.0 0.0 0.0 0.2 0.0 0.4 0.3 0.1 0.6 0.3 0.1 0.6 0.5 0.3 0.7 0.6
1.4 7.3 2.4 0.0 5.3 20.2 20.8 17.5 9.7 4.1 1.4 1.7 2.0 0.6 1.4 0.9 0.8 1.4 1.8 1.4 5.5 7.9 3.2 0.2 0.0 0.0 0.4 0.4 0.2 0.4 0.1 0.1 0.0 0.0 0.0 0.0 0.0 0.0 0.0 0.0 0.0 0.1 0.0 0.0 0.1 0.0 0.3 0.2 0.1 0.0 0.4 0.2 0.1 0.9
8.9 3.9 13.7 9.0 36.5 36.3 24.9 9.4 5.0 3.7 2.2 2.7 2.7 1.4 2.5 3.5 3.2 2.9 2.3 5.0 5.8 0.7 0.2 0.3 0.0 0.0 0.0 0.0 0.6 0.4 0.5 0.0 0.1 0.0 0.0 0.0 0.0 0.0 0.0 0.0 0.0 0.0 0.0 0.0 0.0 0.0 0.0 0.0 0.2 0.0 0.4 0.4 0.1 1.1
3.4 9.2 35.8 38.0 45.5 40.6 24.9 7.5 4.5 4.7 4.2 4.7 3.5 4.5 4.4 3.6 3.2 2.6 4.2 2.4 0.7 0.0 0.0 0.0 0.0 1.0 1.4 1.2 1.4 1.1 0.6 0.1 0.0 0.0 0.1 0.0 0.0 0.0 0.0 0.0 0.0 0.0 0.0 0.0 0.0 0.0 0.0 0.0 0.0 0.0 0.0 0.5 0.3 0.1
1.4 35.8 50.2 48.9 33.9 30.6 18.1 16.4 10.9 6.9 7.6 6.0 5.2 3.8 2.8 1.5 3.0 3.8 3.1 0.4 0.0 0.0 0.0 0.0 0.0 0.0 0.1 0.9 1.2 1.9 2.3 1.6 0.5 0.0 0.6 0.3 0.0 0.0 0.0 0.0 0.0 0.0 0.0 0.0 0.0 0.0 0.0 0.0 0.0 0.0 0.0 0.0 0.0 0.1
58.3 72.0 50.4 51.4 27.9 17.6 10.9 9.0 6.8 5.7 4.8 3.9 2.3 2.9 2.2 2.3 3.3 3.9 1.2 0.3 0.0 0.0 0.6 0.8 0.4 0.1 0.1 0.0 0.7 0.9 1.1 1.5 2.5 2.5 0.3 1.7 0.8 0.2 0.0 0.0 0.2 0.1 0.0 0.0 0.0 0.0 0.0 0.0 0.0 0.0 0.0 0.0 0.1 0.2
68.5 38.9 28.5 13.0 8.6 3.5 2.4 2.3 2.3 2.0 1.2 2.3 1.6 1.1 0.6 3.6 5.9 3.4 0.1 0.0 0.0 0.0 0.4 0.3 0.1 0.0 0.0 0.0 0.0 1.1 1.1 1.2 1.0 1.6 0.3 2.0 1.8 2.4 1.9 1.5 0.9 0.4 0.0 0.0 0.3 0.3 0.1 0.0 0.0 0.0 0.0 0.1 0.0 0.4
56.0 31.0 11.4 2.5 1.8 1.7 1.5 1.6 1.5 1.9 2.8 3.4 2.2 2.0 2.8 7.7 2.2 0.7 0.6 0.4 0.2 0.1 0.0 0.0 0.2 0.5 0.2 0.1 0.0 0.0 0.9 1.3 1.2 0.5 0.3 1.6 1.3 0.9 0.6 1.8 1.4 0.9 0.6 1.1 1.0 0.9 0.9 0.5 0.3 0.2 0.5 0.3 0.3 0.3
18.1 7.8 4.0 3.8 3.9 3.1 3.8 3.0 2.7 2.0 2.7 2.0 3.0 3.3 4.7 3.0 0.8 0.1 0.0 0.0 0.0 0.1 0.7 0.9 0.6 0.4 0.8 0.8 0.4 0.8 1.7 1.8 1.5 0.8 1.7 1.9 1.5 1.2 1.0 1.1 2.3 2.4 2.3 1.7 1.2 1.7 1.9 1.5 1.5 1.7 1.4 0.8 0.9 0.7
5.3 2.2 1.7 2.6 2.6 2.3 2.5 1.9 1.9 1.2 0.9 1.2 1.2 0.8 0.3 0.0 0.0 0.0 0.0 0.0 0.0 0.2 1.0 1.5 1.4 1.5 1.3 1.0 0.7 1.2 1.2 1.6 2.0 1.8 1.3 1.3 1.6 1.8 1.8 3.2 3.9 5.0 4.9 4.5 3.0 2.5 2.3 2.4 3.8 4.1 3.6 3.6 3.4 3.4
1.1 0.6 0.9 1.1 1.8 1.9 1.3 1.6 1.6 1.6 1.6 1.3 1.0 0.6 0.4 0.0 0.1 0.2 0.0 0.0 0.0 0.0 0.0 0.0 0.0 0.0 0.0 0.0 0.0 0.9 0.7 0.7 1.4 1.5 1.5 1.3 1.4 1.7 3.1 3.7 4.9 5.5 5.8 5.2 6.5 7.2 5.1 5.8 6.7 7.1 7.0 6.5 5.9 5.0
0.0 0.0 0.1 0.2 0.5 0.7 0.8 0.3 0.3 0.0 1.0 1.1 0.9 1.3 1.0 0.8 0.6 0.4 0.2 0.0 0.0 0.0 0.0 0.0 0.0 0.2 0.3 0.6 0.9 1.2 1.1 1.1 1.2 2.0 2.1 2.5 2.3 3.1 3.0 4.6 4.8 5.7 6.4 6.8 6.3 6.2 5.7 5.6 5.2 5.0 5.1 4.6 4.2 3.9
0.0 0.1 0.0 0.5 0.8 1.6 1.4 0.7 0.3 0.0 0.2 0.2 0.4 0.7 0.8 0.5 0.0 0.0 0.0 0.0 0.0 0.0 0.0 0.0 0.5 0.8 0.9 1.2 1.6 1.8 2.5 2.8 1.8 2.7 2.6 2.7 3.1 2.8 4.2 4.9 6.0 6.3 7.1 7.5 6.9 6.4 6.5 6.5 7.0 6.5 6.7 6.7 6.2 5.7
2.3 1.1 0.9 0.5 2.2 2.1 1.7 1.0 1.0 0.8 0.7 0.4 0.1 0.1 0.2 0.0 0.0 0.0 0.0 0.0 0.0 0.0 0.0 0.8 1.0 1.3 2.2 2.6 2.4 3.5 3.7 3.2 4.3 4.2 4.7 4.6 4.2 4.7 6.0 6.2 7.4 7.3 7.1 7.2 7.5 8.1 8.5 8.2 7.8 7.1 6.7 6.5 6.3 6.2